Location: Astronomy Club of Akron Observatory
(40.9700°N, 81.5606°W)
Time: 16:41:00
(UTC-04:00)

ISS - Pass Details

Date: 21 July 2018
Orbit: 402 x 408 km, 51.6° (Epoch: 22 July)

Event Time Altitude Azimuth Distance (km) Brightness Sun altitude
Rises 01:33:00 0° 303° (WNW) 2,327 0.4 -28.6°
Reaches altitude 10° 01:35:59 10° 333° (NNW) 1,468 -0.3 -28.6°
Maximum altitude 01:37:36 13° 2° (N) 1,302 -0.4 -28.5°
Drops below altitude 10° 01:39:13 10° 32° (NNE) 1,469 -0.3 -28.5°
Sets 01:42:13 0° 62° (ENE) 2,331 0.4 -28.5°
